Windom, MN

4:24 PM CDT on September 20, 2017 (GMT -0500)
Windom Municipal

Weather History for KMWM - November, 2014

Change the Weather History Date:

Tuesday, November 11, 2014

  Actual Average Record
Temperature  
Mean Temperature 18 °F -  
Max Temperature 21 °F 40 °F 68 °F (1967)
Min Temperature 15 °F 23 °F -6 °F (1986)
Degree Days  
Heating Degree Days 47    
Moisture  
Dew Point 16 °F    
Average Humidity 88    
Maximum Humidity 93    
Minimum Humidity 74    
Precipitation  
Precipitation 0.00 in - - ()
Sea Level Pressure  
Sea Level Pressure 30.17 in    
Wind  
Wind Speed 19 mph (NW)    
Max Wind Speed 23 mph    
Max Gust Speed 29 mph    
Visibility 9 miles    
Events Snow    
Averages and records for this station are not official NWS values.
T = Trace of Precipitation, MM = Missing Value Source: NWS Daily Summary

Daily Weather History Graph

Daily Weather History Graph

Search for Another Location

Airport or City:

Trip Planner

Search our weather history database for the weather conditions in past years. The results will help you decide how hot, cold, wet, or windy it might be!

Date:

Astronomy

Nov. 11, 2014 Rise Set
Actual Time 7:09 AM CST 4:58 PM CST
Civil Twilight 6:39 AM CST 5:29 PM CST
Nautical Twilight 6:04 AM CST 6:03 PM CST
Astronomical Twilight 5:30 AM CST 6:37 PM CST
Moon 9:22 PM CST (11/11) 11:17 AM CST (11/11)
Length of Visible Light 10h 50m
Length of Day
9h 48m
Waning Gibbous, 76% of the Moon is Illuminated
Nov 11
Waning Gibbous
Nov 14
Last Quarter
Nov 22
New
Nov 29
First Quarter
Dec 6
Full

Hourly Weather History & Observations

Time (CST) Temp. Windchill Dew Point Humidity Pressure Visibility Wind Dir Wind Speed Gust Speed Precip Events Conditions
12:14 AM 19.4 °F 3.2 °F 17.6 °F 93% 29.99 in 3.0 mi NW 20.7 mph 28.8 mph N/A Snow Light Snow
12:33 AM 19.4 °F 3.6 °F 17.6 °F 93% 30.01 in 2.5 mi NW 19.6 mph 26.5 mph N/A Snow Light Snow
12:54 AM 19.4 °F 3.2 °F 17.6 °F 93% 30.00 in 4.0 mi NW 20.7 mph 26.5 mph N/A Snow Light Snow
1:14 AM 17.6 °F 0.1 °F 15.8 °F 93% 29.99 in 4.0 mi NW 23.0 mph 27.6 mph N/A Snow Light Snow
1:33 AM 17.6 °F 0.9 °F 15.8 °F 93% 29.99 in 4.0 mi NW 20.7 mph 28.8 mph N/A Snow Light Snow
1:54 AM 17.6 °F 0.9 °F 15.8 °F 93% 30.00 in 4.0 mi NW 20.7 mph - N/A Snow Light Snow
2:14 AM 17.6 °F 1.3 °F 15.8 °F 93% 30.02 in 4.0 mi NW 19.6 mph 25.3 mph N/A Snow Light Snow
2:33 AM 17.6 °F 0.9 °F 15.8 °F 93% 30.03 in 4.0 mi NW 20.7 mph 27.6 mph N/A Snow Light Snow
2:54 AM 17.6 °F 0.5 °F 15.8 °F 93% 30.04 in 5.0 mi NW 21.9 mph 27.6 mph N/A Snow Light Snow
3:14 AM 17.6 °F 0.1 °F 15.8 °F 93% 30.05 in 7.0 mi NW 23.0 mph 28.8 mph N/A Snow Light Snow
3:33 AM 17.6 °F 0.5 °F 15.8 °F 93% 30.05 in 7.0 mi NW 21.9 mph 26.5 mph N/A Snow Light Snow
3:54 AM 17.6 °F 0.5 °F 14.0 °F 86% 30.06 in 10.0 mi NW 21.9 mph 25.3 mph N/A Snow Light Snow
4:13 AM 17.6 °F 1.3 °F 14.0 °F 86% 30.05 in 10.0 mi NW 19.6 mph 25.3 mph N/A Snow Light Snow
4:33 AM 17.6 °F 1.7 °F 14.0 °F 86% 30.06 in 10.0 mi NW 18.4 mph 26.5 mph N/A   Overcast
4:54 AM 17.6 °F 2.7 °F 14.0 °F 86% 30.06 in 10.0 mi NW 16.1 mph 26.5 mph N/A   Overcast
5:13 AM 17.6 °F 1.3 °F 14.0 °F 86% 30.06 in 10.0 mi NNW 19.6 mph 25.3 mph N/A   Mostly Cloudy
5:33 AM 15.8 °F -1.1 °F 12.2 °F 86% 30.07 in 10.0 mi NW 19.6 mph - N/A   Mostly Cloudy
5:54 AM 15.8 °F -0.2 °F 14.0 °F 93% 30.08 in 10.0 mi NW 17.3 mph 23.0 mph N/A   Scattered Clouds
6:13 AM 15.8 °F 0.3 °F 14.0 °F 93% 30.09 in 10.0 mi NW 16.1 mph 24.2 mph N/A   Mostly Cloudy
6:33 AM 15.8 °F -0.2 °F 14.0 °F 93% 30.09 in 10.0 mi NW 17.3 mph - N/A   Scattered Clouds
6:54 AM 17.6 °F 2.7 °F 14.0 °F 86% 30.10 in 10.0 mi NW 16.1 mph 21.9 mph N/A   Scattered Clouds
7:13 AM 17.6 °F 2.7 °F 15.8 °F 93% 30.10 in 10.0 mi NW 16.1 mph - N/A   Mostly Cloudy
7:33 AM 17.6 °F 2.2 °F 15.8 °F 93% 30.11 in 10.0 mi NW 17.3 mph 24.2 mph N/A   Overcast
7:53 AM 17.6 °F 2.2 °F 15.8 °F 93% 30.12 in 10.0 mi NW 17.3 mph 24.2 mph N/A   Overcast
8:14 AM 17.6 °F 1.3 °F 15.8 °F 93% 30.13 in 10.0 mi NW 19.6 mph 24.2 mph N/A   Overcast
8:34 AM 19.4 °F 3.6 °F 15.8 °F 86% 30.14 in 10.0 mi NW 19.6 mph 23.0 mph N/A Snow Light Snow
8:53 AM 19.4 °F 3.6 °F 15.8 °F 86% 30.14 in 7.0 mi NW 19.6 mph 25.3 mph N/A Snow Light Snow
9:13 AM 19.4 °F 4.1 °F 17.6 °F 93% 30.15 in 7.0 mi NW 18.4 mph 23.0 mph N/A Snow Light Snow
9:34 AM 19.4 °F 5.0 °F 17.6 °F 93% 30.15 in 7.0 mi NW 16.1 mph 26.5 mph N/A Snow Light Snow
9:53 AM 19.4 °F 3.6 °F 17.6 °F 93% 30.15 in 7.0 mi NW 19.6 mph 26.5 mph N/A Snow Light Snow
10:13 AM 19.4 °F 4.1 °F 17.6 °F 93% 30.15 in 10.0 mi NNW 18.4 mph 24.2 mph N/A Snow Light Snow
10:34 AM 19.4 °F 5.0 °F 17.6 °F 93% 30.16 in 10.0 mi NW 16.1 mph 20.7 mph N/A Snow Light Snow
10:53 AM 19.4 °F 3.6 °F 17.6 °F 93% 30.17 in 10.0 mi NW 19.6 mph 24.2 mph N/A Snow Light Snow
11:13 AM 21.2 °F 6.8 °F 17.6 °F 86% 30.17 in 10.0 mi NW 17.3 mph 25.3 mph N/A   Overcast
11:33 AM 21.2 °F 6.4 °F 17.6 °F 86% 30.17 in 10.0 mi NW 18.4 mph 25.3 mph N/A   Overcast
11:53 AM 21.2 °F 6.0 °F 17.6 °F 86% 30.17 in 10.0 mi NW 19.6 mph 25.3 mph N/A   Overcast
12:14 PM 21.2 °F 6.4 °F 17.6 °F 86% 30.17 in 10.0 mi NW 18.4 mph 25.3 mph N/A Snow Light Snow
12:33 PM 21.2 °F 6.4 °F 17.6 °F 86% 30.17 in 10.0 mi NW 18.4 mph 26.5 mph N/A Snow Light Snow
12:53 PM 21.2 °F 5.6 °F 17.6 °F 86% 30.17 in 10.0 mi NW 20.7 mph 27.6 mph N/A Snow Light Snow
1:13 PM 21.2 °F 6.8 °F 17.6 °F 86% 30.18 in 10.0 mi NW 17.3 mph 25.3 mph N/A Snow Light Snow
1:33 PM 21.2 °F 5.6 °F 17.6 °F 86% 30.19 in 10.0 mi NW 20.7 mph 26.5 mph N/A   Overcast
1:54 PM 21.2 °F 7.3 °F 17.6 °F 86% 30.19 in 10.0 mi NW 16.1 mph - N/A Snow Light Snow
2:13 PM 21.2 °F 5.2 °F 17.6 °F 86% 30.20 in 7.0 mi NW 21.9 mph 26.5 mph N/A Snow Light Snow
2:33 PM 21.2 °F 6.0 °F 15.8 °F 80% 30.21 in 7.0 mi NW 19.6 mph 27.6 mph N/A Snow Light Snow
2:54 PM 21.2 °F 6.4 °F 15.8 °F 80% 30.22 in 10.0 mi NW 18.4 mph 26.5 mph N/A Snow Light Snow
3:13 PM 21.2 °F 6.0 °F 15.8 °F 80% 30.22 in 10.0 mi NW 19.6 mph 25.3 mph N/A Snow Light Snow
3:33 PM 19.4 °F 3.6 °F 15.8 °F 86% 30.23 in 10.0 mi NW 19.6 mph 26.5 mph N/A   Overcast
3:54 PM 19.4 °F 4.5 °F 15.8 °F 86% 30.24 in 10.0 mi NW 17.3 mph 24.2 mph N/A   Overcast
4:13 PM 19.4 °F 4.5 °F 15.8 °F 86% 30.24 in 10.0 mi NW 17.3 mph 20.7 mph N/A Snow Light Snow
4:33 PM 19.4 °F 4.1 °F 15.8 °F 86% 30.25 in 10.0 mi NW 18.4 mph 23.0 mph N/A Snow Light Snow
4:54 PM 19.4 °F 4.5 °F 12.2 °F 74% 30.25 in 10.0 mi NW 17.3 mph 24.2 mph N/A Snow Light Snow
5:13 PM 19.4 °F 3.6 °F 12.2 °F 74% 30.26 in 10.0 mi NW 19.6 mph 24.2 mph N/A Snow Light Snow
5:33 PM 19.4 °F 6.6 °F 14.0 °F 80% 30.27 in 10.0 mi NW 12.7 mph - N/A Snow Light Snow
5:53 PM 19.4 °F 6.0 °F 14.0 °F 80% 30.27 in 10.0 mi NW 13.8 mph 21.9 mph N/A Snow Light Snow
6:13 PM 19.4 °F 5.5 °F 15.8 °F 86% 30.27 in 10.0 mi NW 15.0 mph 18.4 mph N/A Snow Light Snow
6:34 PM 19.4 °F 5.5 °F 15.8 °F 86% 30.28 in 10.0 mi NW 15.0 mph 19.6 mph N/A Snow Light Snow
6:53 PM 19.4 °F 6.0 °F 15.8 °F 86% 30.28 in 10.0 mi WNW 13.8 mph - N/A Snow Light Snow
7:13 PM 19.4 °F 5.5 °F 15.8 °F 86% 30.29 in 2.5 mi NW 15.0 mph - N/A Snow Light Snow
7:34 PM 17.6 °F 3.7 °F 15.8 °F 93% 30.29 in 3.0 mi NW 13.8 mph - N/A Snow Light Snow
7:53 PM 17.6 °F 2.7 °F 15.8 °F 93% 30.29 in 10.0 mi NW 16.1 mph 24.2 mph N/A Snow Light Snow
8:13 PM 17.6 °F 4.3 °F 15.8 °F 93% 30.30 in 10.0 mi NW 12.7 mph - N/A Snow Light Snow
8:34 PM 17.6 °F 5.0 °F 15.8 °F 93% 30.29 in 10.0 mi NW 11.5 mph 17.3 mph N/A   Overcast
8:53 PM 17.6 °F 3.2 °F 14.0 °F 86% 30.29 in 10.0 mi NW 15.0 mph 23.0 mph N/A Snow Light Snow
9:13 PM 17.6 °F 5.0 °F 14.0 °F 86% 30.30 in 10.0 mi NW 11.5 mph 19.6 mph N/A   Overcast
9:34 PM 17.6 °F 5.0 °F 14.0 °F 86% 30.30 in 10.0 mi NW 11.5 mph 17.3 mph N/A Snow Light Snow
9:53 PM 17.6 °F 3.7 °F 14.0 °F 86% 30.30 in 10.0 mi NW 13.8 mph 17.3 mph N/A Snow Light Snow
10:13 PM 17.6 °F 3.7 °F 14.0 °F 86% 30.30 in 10.0 mi NW 13.8 mph - N/A Snow Light Snow
10:34 PM 17.6 °F 6.4 °F 14.0 °F 86% 30.30 in 7.0 mi NW 9.2 mph - N/A Snow Light Snow
10:53 PM 17.6 °F 7.3 °F 12.2 °F 79% 30.30 in 10.0 mi NW 8.1 mph - N/A Snow Light Snow
11:13 PM 17.6 °F 5.0 °F 12.2 °F 79% 30.31 in 10.0 mi NW 11.5 mph - N/A Snow Light Snow
11:33 PM 17.6 °F 5.7 °F 12.2 °F 79% 30.31 in 10.0 mi NW 10.4 mph - N/A Snow Light Snow
11:53 PM 17.6 °F 6.4 °F 12.2 °F 79% 30.32 in 7.0 mi NW 9.2 mph - N/A Snow Light Snow